FW4606 Weather Reports


time (UTC)temp
C
wind
direction
speed
KPH
gust
KPH
rain 1hr
cm
rain 24hr
cm
rain mn
cm
humidity
%
barometer
mb
20230128010056 -11 168 0.0 1.6 0.00 0.00 0.00 74 1011.6
20230128005556 -11 277 0.0 1.6 0.00 0.00 0.00 74 1011.4
20230128005056 -11 246 0.0 3.2 0.00 0.00 0.00 74 1011.2
20230128004555 -10 249 0.0 6.4 0.00 0.00 0.00 75 1011.2
20230128004055 -10 278 0.0 6.4 0.00 0.00 0.00 75 1011.2
20230128003555 -11 228 0.0 1.6 0.00 0.00 0.00 75 1011.2
20230128003053 -11 271 0.0 1.6 0.00 0.00 0.00 74 1011.0
20230128002554 -10 203 0.0 3.2 0.00 0.00 0.00 73 1010.9
20230128002054 -10 242 0.0 6.4 0.00 0.00 0.00 74 1010.8
20230128001554 -10 126 0.0 6.4 0.00 0.00 0.00 74 1010.7
20230128001048 -10 266 0.0 4.8 0.00 0.00 0.00 74 1010.6
20230128000549 -10 283 0.0 1.6 0.00 0.00 0.00 74 1010.4
20230128000050 -10 187 0.0 3.2 0.00 0.00 0.00 74 1010.3
20230127235549 -10 259 0.0 8.0 0.00 0.00 0.00 74 1010.2
20230127235048 -10 190 0.0 8.0 0.00 0.00 0.00 74 1009.9
20230127234820 -10 266 0.0 1.6 0.00 0.00 0.00 74 1009.8
20230127234322 -10 127 0.0 1.6 0.00 0.00 0.00 74 1009.7
20230127233550 -10 281 0.0 1.6 0.00 0.00 0.00 74 1009.6
20230127233049 -9 263 0.0 1.6 0.00 0.00 0.00 73 1009.2
20230127232546 -9 277 0.0 1.6 0.00 0.00 0.00 73 1009.0
20230127232044 -9 274 0.0 1.6 0.00 0.00 0.00 72 1008.9
20230127231816 -8 118 0.0 1.6 0.00 0.00 0.00 72 1008.6
20230127231045 -8 148 1.6 9.7 0.00 0.00 0.00 71 1008.5
20230127230545 -8 126 1.6 9.7 0.00 0.00 0.00 70 1008.4
20230127230047 -7 221 1.6 9.7 0.00 0.00 0.00 69 1008.2
20230127225546 -7 270 1.6 9.7 0.00 0.00 0.00 68 1008.1
20230127225046 -7 214 1.6 4.8 0.00 0.00 0.00 67 1008.0
20230127224818 -7 219 1.6 4.8 0.00 0.00 0.00 67 1007.7
20230127224042 -6 139 0.0 4.8 0.00 0.00 0.00 67 1007.6
20230127223814 -6 281 0.0 3.2 0.00 0.00 0.00 67 1007.5
20230127223043 -6 219 0.0 1.6 0.00 0.00 0.00 68 1007.4
20230127222546 -6 263 0.0 4.8 0.00 0.00 0.00 66 1007.3
20230127222540 -6 266 0.0 1.6 0.00 0.00 0.00 68 1007.3
20230127221540 -6 162 1.6 9.7 0.00 0.00 0.00 66 1007.2
20230127221042 -6 146 1.6 9.7 0.00 0.00 0.00 66 1007.1
20230127220540 -6 269 0.0 3.2 0.00 0.00 0.00 66 1006.9
20230127220313 -5 281 0.0 3.2 0.00 0.00 0.00 65 1006.8
20230127215537 -5 265 0.0 1.6 0.00 0.00 0.00 64 1006.6
20230127215037 -5 240 0.0 1.6 0.00 0.00 0.00 65 1006.5
20230127214537 -5 294 0.0 3.2 0.00 0.00 0.00 66 1006.3
20230127214036 -4 288 0.0 4.8 0.00 0.00 0.00 66 1006.2
20230127213536 -5 256 0.0 4.8 0.00 0.00 0.00 67 1006.2
20230127213036 -5 277 0.0 4.8 0.00 0.00 0.00 67 1006.0
20230127212537 -5 222 0.0 12.9 0.00 0.00 0.00 66 1006.1
20230127212036 -5 139 0.0 12.9 0.00 0.00 0.00 66 1006.0
20230127211538 -5 243 0.0 6.4 0.00 0.00 0.00 67 1005.9
20230127211306 -5 345 0.0 3.2 0.00 0.00 0.00 68 1005.8
20230127210532 -5 281 0.0 4.8 0.00 0.00 0.00 67 1005.8
20230127210032 -5 252 1.6 11.3 0.00 0.00 0.00 68 1005.7
20230127205533 -5 219 1.6 11.3 0.00 0.00 0.00 68 1005.4
20230127205034 -5 291 1.6 11.3 0.00 0.00 0.00 69 1005.3
20230127204534 -5 275 1.6 11.3 0.00 0.00 0.00 68 1005.3
20230127204033 -5 288 0.0 6.4 0.00 0.00 0.00 70 1005.1
20230127203533 -5 288 0.0 6.4 0.00 0.00 0.00 70 1005.1
20230127203035 -5 259 1.6 11.3 0.00 0.00 0.00 70 1005.0
20230127202530 -5 295 3.2 11.3 0.00 0.00 0.00 69 1004.9
20230127202028 -5 256 1.6 14.5 0.00 0.00 0.00 69 1004.8
20230127201528 -5 282 1.6 14.5 0.00 0.00 0.00 70 1004.8
20230127201259 -5 276 0.0 6.4 0.00 0.00 0.00 72 1004.7
20230127200529 -5 106 0.0 6.4 0.00 0.00 0.00 73 1004.6
20230127200029 -4 257 0.0 9.7 0.00 0.00 0.00 73 1004.5
20230127195802 -4 334 0.0 9.7 0.00 0.00 0.00 72 1004.3
20230127195028 -4 203 1.6 9.7 0.00 0.00 0.00 72 1004.4
20230127194529 -4 277 3.2 16.1 0.00 0.00 0.00 72 1004.3
20230127194030 -5 236 3.2 16.1 0.00 0.00 0.00 72 1004.2
20230127193529 -5 284 0.0 17.7 0.00 0.00 0.00 75 1004.1
20230127193030 -5 248 1.6 17.7 0.00 0.00 0.00 74 1004.0
20230127192530 -5 316 1.6 12.9 0.00 0.00 0.00 74 1004.0
20230127192029 -5 312 1.6 12.9 0.00 0.00 0.00 74 1003.9
20230127191529 -5 288 1.6 8.0 0.00 0.00 0.00 75 1003.8
20230127191026 -5 270 3.2 9.7 0.00 0.00 0.00 75 1003.6
20230127190526 -5 295 1.6 9.7 0.00 0.00 0.00 75 1003.8
20230127190302 -4 303 3.2 17.7 0.00 0.00 0.00 75 1003.7
20230127185522 -4 285 4.8 17.7 0.00 0.00 0.00 74 1003.5
20230127185020 -4 280 1.6 9.7 0.00 0.00 0.00 74 1003.4
20230127184746 -4 282 1.6 6.4 0.00 0.00 0.00 75 1003.3
20230127184009 -5 314 1.6 9.7 0.00 0.00 0.00 75 1003.2
20230127183503 -5 15 3.2 9.7 0.00 0.00 0.00 75 1003.1
20230127182957 -5 243 3.2 14.5 0.00 0.00 0.00 75 1003.0
20230127182451 -5 271 3.2 19.3 0.00 0.00 0.00 75 1003.0
20230127181945 -5 297 3.2 19.3 0.00 0.00 0.00 75 1003.1
20230127181710 -5 281 1.6 14.5 0.00 0.00 0.00 75 1003.0
20230127180933 -5 120 1.6 14.5 0.00 0.00 0.00 76 1003.0
20230127180427 -5 248 3.2 17.7 0.00 0.00 0.00 76 1003.0
20230127175921 -4 210 1.6 17.7 0.00 0.00 0.00 76 1002.8
20230127175414 -4 179 1.6 9.7 0.00 0.00 0.00 77 1002.6
20230127174909 -4 301 1.6 9.7 0.00 0.00 0.00 76 1002.4
20230127174402 -4 259 1.6 11.3 0.00 0.00 0.00 77 1002.4
20230127173857 -4 156 3.2 14.5 0.00 0.00 0.00 78 1002.2
20230127173351 -5 102 1.6 14.5 0.00 0.00 0.00 78 1002.1
20230127172844 -5 234 1.6 11.3 0.00 0.00 0.00 79 1002.2
20230127172609 -4 302 1.6 11.3 0.00 0.00 0.00 80 1002.1
20230127172104 -4 285 3.2 12.9 0.00 0.00 0.00 81 1002.0
20230127171327 -5 257 3.2 12.9 0.00 0.00 0.00 81 1001.9
20230127170821 -5 27 1.6 12.9 0.00 0.00 0.00 81 1001.8
20230127170315 -5 4 0.0 8.0 0.00 0.00 0.00 82 1001.9
20230127165808 -5 137 1.6 12.9 0.00 0.00 0.00 82 1001.8
20230127165306 -5 293 1.6 12.9 0.00 0.00 0.00 82 1001.5
20230127164758 -5 194 1.6 12.9 0.00 0.00 0.00 83 1001.5
20230127164250 -5 276 3.2 12.9 0.00 0.00 0.00 83 1001.4
20230127163745 -5 163 3.2 12.9 0.00 0.00 0.00 83 1001.3
20230127163238 -5 136 3.2 12.9 0.00 0.00 0.00 84 1001.2
20230127162733 -4 272 1.6 9.7 0.00 0.00 0.00 84 1001.1
20230127162227 -4 302 1.6 9.7 0.00 0.00 0.00 85 1000.9
20230127161721 -4 255 1.6 11.3 0.00 0.00 0.00 84 1000.8
20230127161215 -4 239 1.6 11.3 0.00 0.00 0.00 85 1000.5
20230127160709 -4 262 1.6 16.1 0.00 0.00 0.00 85 1000.4
20230127160203 -3 285 1.6 16.1 0.00 0.00 0.00 85 1000.3
20230127155927 -3 266 1.6 16.1 0.00 0.00 0.00 86 1000.2
20230127155150 -3 288 1.6 16.1 0.00 0.00 0.00 86 999.9
20230127154645 -3 291 3.2 17.7 0.00 0.00 0.00 85 999.8
20230127154140 -3 294 3.2 17.7 0.00 0.00 0.00 85 999.5
20230127154134 -3 285 1.6 12.9 0.00 0.00 0.00 85 999.3
20230127153127 -3 243 0.0 3.2 0.00 0.00 0.00 86 999.3
20230127152851 -3 273 0.0 1.6 0.00 0.00 0.00 86 999.1
20230127152114 -3 301 0.0 1.6 0.00 0.00 0.00 86 999.0
20230127151609 -3 304 0.0 11.3 0.00 0.00 0.00 86 998.8
20230127151104 -2 228 0.0 11.3 0.00 0.00 0.00 86 998.7
20230127150604 -2 353 1.6 11.3 0.00 0.00 0.00 85 998.4
20230127150336 -2 288 0.0 11.3 0.00 0.00 0.00 87 998.3
20230127145610 -1 225 0.0 6.4 0.00 0.00 0.00 89 997.7
20230127145604 -1 79 0.0 6.4 0.00 0.00 0.00 88 998.0
20230127144606 -1 188 0.0 4.8 0.00 0.00 0.00 89 997.6
20230127144105 -1 271 0.0 6.4 0.00 0.00 0.00 89 997.4
20230127143604 -1 293 0.0 6.4 0.00 0.00 0.00 90 997.2
20230127143106 -1 214 0.0 6.4 0.00 0.00 0.00 90 997.1
20230127142604 -1 303 0.0 16.1 0.00 0.00 0.00 90 996.9
20230127142104 -1 323 1.6 16.1 0.00 0.00 0.00 90 996.8
20230127141604 0 187 3.2 19.3 0.00 0.00 0.00 90 996.6
20230127141106 0 148 1.6 19.3 0.00 0.00 0.00 90 996.5
20230127140605 0 253 1.6 11.3 0.00 0.00 0.00 92 996.1
20230127140105 0 276 0.0 6.4 0.00 0.00 0.00 93 996.0
20230127135557 0 314 0.0 6.4 0.00 0.00 0.00 94 995.7
20230127135051 0 304 0.0 11.3 0.00 0.00 0.00 95 995.4
20230127134545 0 288 0.0 11.3 0.00 0.00 0.00 95 995.3
20230127134039 0 278 0.0 4.8 0.00 0.00 0.00 95 995.2
20230127133533 0 284 0.0 4.8 0.00 0.00 0.00 95 995.1
20230127133026 0 274 0.0 1.6 0.00 0.00 0.00 95 995.1
20230127132520 0 188 0.0 3.2 0.00 0.00 0.00 96 995.0
20230127132015 0 261 0.0 3.2 0.00 0.00 0.00 96 994.9
20230127131508 -1 156 0.0 3.2 0.00 0.00 0.00 95 994.8
20230127131003 -1 114 0.0 0.0 0.00 0.00 0.00 95 994.7
20230127130728 -1 203 0.0 0.0 0.00 0.00 0.00 95 994.6
20230127125950 -1 203 0.0 0.0 0.00 0.00 0.00 95 994.6
20230127125445 -1 203 0.0 0.0 0.00 0.00 0.00 95 994.6
20230127124939 -1 204 0.0 0.0 0.00 0.00 0.00 95 994.4
20230127124433 -1 217 0.0 0.0 0.00 0.00 0.00 95 994.4
20230127123926 -1 225 0.0 0.0 0.00 0.00 0.00 94 994.2
20230127123419 -1 215 0.0 0.0 0.00 0.00 0.00 94 994.2
20230127122913 -1 226 0.0 1.6 0.00 0.00 0.00 94 994.2
20230127122407 -1 218 0.0 1.6 0.00 0.00 0.00 94 993.9
20230127121901 -1 173 0.0 1.6 0.00 0.00 0.00 95 993.9
20230127121355 -2 225 0.0 1.6 0.00 0.00 0.00 95 993.8
20230127120849 -2 106 0.0 0.0 0.00 0.00 0.00 94 993.8
20230127120343 -2 189 0.0 4.8 0.00 0.00 0.00 94 993.8
20230127115838 -2 215 0.0 4.8 0.00 0.00 0.00 94 993.8
20230127115330 -2 207 0.0 1.6 0.00 0.00 0.00 94 993.8
20230127114825 -2 221 0.0 4.8 0.00 0.00 0.00 94 993.7
20230127114319 -2 107 0.0 4.8 0.00 0.00 0.00 94 993.7
20230127113812 -2 150 0.0 3.2 0.00 0.00 0.00 94 993.7
20230127113307 -2 214 0.0 4.8 0.00 0.00 0.00 94 993.8
20230127112801 -2 145 0.0 8.0 0.00 0.00 0.00 94 993.7
20230127112255 -2 176 0.0 8.0 0.00 0.00 0.00 94 993.8
20230127112020 -2 222 1.6 9.7 0.00 0.00 0.00 94 993.8
20230127111242 -2 131 1.6 9.7 0.00 0.00 0.00 94 993.9
20230127110738 -3 242 1.6 6.4 0.00 0.00 0.00 94 993.9
20230127110230 -3 210 1.6 6.4 0.00 0.00 0.00 94 993.9
20230127105724 -3 131 1.6 8.0 0.00 0.00 0.00 94 994.2
20230127105219 -3 236 1.6 8.0 0.00 0.00 0.00 94 994.3
20230127104713 -3 91 1.6 8.0 0.00 0.00 0.00 94 994.3
20230127104207 -3 116 3.2 12.9 0.00 0.00 0.00 94 994.4
20230127103929 -3 193 1.6 11.3 0.00 0.00 0.00 93 994.4
20230127103803 -3 181 3.2 12.9 0.00 0.00 0.00 94 994.3
20230127102649 -3 154 1.6 8.0 0.00 0.00 0.00 93 994.4
20230127102143 -3 152 1.6 8.0 0.00 0.00 0.00 93 994.5
20230127101644 -3 128 1.6 8.0 0.00 0.00 0.00 93 994.5
20230127101143 -3 153 1.6 11.3 0.00 0.00 0.00 93 994.7
20230127100645 -3 144 3.2 11.3 0.00 0.00 0.00 93 994.6
20230127100143 -3 63 3.2 9.7 0.00 0.00 0.00 93 994.6
20230127095644 -3 108 3.2 9.7 0.00 0.00 0.00 93 994.7
20230127095141 -4 101 1.6 9.7 0.00 0.00 0.00 93 994.8
20230127094641 -4 200 1.6 8.0 0.00 0.00 0.00 93 995.0
20230127094141 -4 132 1.6 11.3 0.00 0.00 0.00 93 995.0
20230127093640 -4 103 3.2 11.3 0.00 0.00 0.00 93 995.1
20230127093140 -4 75 1.6 9.7 0.00 0.00 0.00 93 995.2
20230127092913 -5 144 3.2 17.7 0.00 0.00 0.00 93 995.3
20230127092411 -5 153 3.2 17.7 0.00 0.00 0.00 93 995.4
20230127091642 -5 166 1.6 12.9 0.00 0.00 0.00 93 995.6
20230127091141 -5 141 3.2 12.9 0.00 0.00 0.00 93 995.6
20230127090642 -5 103 3.2 12.9 0.00 0.00 0.00 93 995.7
20230127090143 -5 149 1.6 12.9 0.00 0.00 0.00 92 995.9
20230127085912 -5 197 1.6 8.0 0.00 0.00 0.00 92 995.9
20230127085137 -5 135 1.6 8.0 0.00 0.00 0.00 92 996.0
20230127084630 -6 103 1.6 8.0 0.00 0.00 0.00 92 996.1
20230127084125 -6 167 3.2 9.7 0.00 0.00 0.00 92 996.2
20230127083619 -6 164 3.2 9.7 0.00 0.00 0.00 92 996.4
20230127083344 -6 214 1.6 9.7 0.00 0.00 0.00 92 996.5
20230127082606 -6 148 1.6 9.7 0.00 0.00 0.00 92 996.7
20230127082101 -6 127 3.2 9.7 0.00 0.00 0.00 92 996.9
20230127081554 -6 167 3.2 9.7 0.00 0.00 0.00 92 996.9
20230127081048 -6 186 3.2 11.3 0.00 0.00 0.00 92 997.0
20230127080542 -6 197 3.2 11.3 0.00 0.00 0.00 91 997.1
20230127080307 -7 160 3.2 16.1 0.00 0.00 0.00 91 997.3
20230127075530 -7 174 3.2 16.1 0.00 0.00 0.00 91 997.4
20230127075024 -7 163 3.2 11.3 0.00 0.00 0.00 91 997.6
20230127074518 -7 131 3.2 11.3 0.00 0.00 0.00 91 997.7
20230127074012 -7 165 3.2 11.3 0.00 0.00 0.00 91 998.0
20230127073508 -7 122 3.2 11.3 0.00 0.00 0.00 91 998.2
20230127073000 -7 142 1.6 11.3 0.00 0.00 0.00 91 998.3
20230127072454 -8 121 1.6 12.9 0.00 0.00 0.00 91 998.3
20230127072219 -8 211 3.2 12.9 0.00 0.00 0.00 91 998.5
20230127071444 -8 108 1.6 14.5 0.00 0.00 0.00 91 998.6
20230127071207 -8 167 1.6 14.5 0.00 0.00 0.00 90 998.8
20230127070430 -8 117 3.2 14.5 0.00 0.00 0.00 90 998.8
20230127065925 -8 159 3.2 14.5 0.00 0.00 0.00 90 998.9
20230127065418 -8 219 3.2 14.5 0.00 0.00 0.00 90 999.1
20230127064915 -8 210 3.2 9.7 0.00 0.00 0.00 90 999.2
20230127064908 -8 118 3.2 12.9 0.00 0.00 0.00 90 999.3
20230127063906 -8 89 3.2 12.9 0.00 0.00 0.00 90 999.5
20230127063406 -8 118 3.2 16.1 0.00 0.00 0.00 90 999.7
20230127062906 -8 252 3.2 16.1 0.00 0.00 0.00 89 999.9
20230127062411 -8 143 1.6 9.7 0.00 0.00 0.00 89 1000.3
20230127062406 -8 175 3.2 9.7 0.00 0.00 0.00 89 1000.0
20230127061406 -8 158 1.6 8.0 0.00 0.00 0.00 89 1000.4
20230127060906 -8 133 1.6 11.3 0.00 0.00 0.00 89 1000.6
20230127060406 -8 229 3.2 12.9 0.00 0.00 0.00 88 1000.8
20230127055905 -8 166 3.2 12.9 0.00 0.00 0.00 88 1000.9
20230127055405 -8 131 3.2 12.9 0.00 0.00 0.00 88 1001.1
20230127054904 -8 143 3.2 12.9 0.00 0.00 0.00 87 1001.3
20230127054406 -8 96 3.2 14.5 0.00 0.00 0.00 87 1001.4
20230127053906 -9 153 3.2 14.5 0.00 0.00 0.00 87 1001.6
20230127053405 -9 149 3.2 12.9 0.00 0.00 0.00 87 1001.8
20230127053136 -9 91 3.2 16.1 0.00 0.00 0.00 87 1001.9
20230127052404 -9 122 3.2 16.1 0.00 0.00 0.00 86 1002.1
20230127051905 -9 148 1.6 14.5 0.00 0.00 0.00 86 1002.1
20230127051404 -9 181 3.2 12.9 0.00 0.00 0.00 86 1002.4
20230127050905 -9 133 1.6 12.9 0.00 0.00 0.00 85 1002.6
20230127050405 -9 136 1.6 9.7 0.00 0.00 0.00 86 1002.6
20230127045906 -9 132 1.6 8.0 0.00 0.00 0.00 86 1002.8
20230127045405 -9 79 1.6 12.9 0.00 0.00 0.00 86 1003.0
20230127044900 -9 100 1.6 12.9 0.00 0.00 0.00 86 1003.2
20230127044401 -9 97 3.2 14.5 0.00 0.00 0.00 86 1003.4
20230127043902 -9 118 1.6 14.5 0.00 0.00 0.00 86 1003.7
20230127043401 -9 123 1.6 9.7 0.00 0.00 0.00 85 1004.1
20230127042901 -9 162 1.6 9.7 0.00 0.00 0.00 85 1004.2
20230127042403 -10 165 1.6 9.7 0.00 0.00 0.00 85 1004.4
20230127041903 -10 153 0.0 6.4 0.00 0.00 0.00 85 1004.5
20230127041402 -10 172 1.6 9.7 0.00 0.00 0.00 84 1004.7
20230127041134 -10 187 1.6 9.7 0.00 0.00 0.00 84 1005.0
20230127040358 -10 122 1.6 9.7 0.00 0.00 0.00 84 1005.0
20230127040136 -10 242 1.6 11.3 0.00 0.00 0.00 83 1005.3
20230127035858 -10 170 1.6 9.7 0.00 0.00 0.00 84 1005.1
20230127034858 -10 148 3.2 11.3 0.00 0.00 0.00 83 1005.5
20230127034357 -10 116 1.6 11.3 0.00 0.00 0.00 83 1005.5
20230127033857 -10 150 1.6 9.7 0.00 0.00 0.00 83 1005.8
20230127033358 -10 134 0.0 6.4 0.00 0.00 0.00 84 1005.9
20230127032857 -10 204 1.6 8.0 0.00 0.00 0.00 84 1006.1
20230127032358 -10 148 0.0 8.0 0.00 0.00 0.00 84 1006.3
20230127031853 -10 224 0.0 12.9 0.00 0.00 0.00 85 1006.5
20230127031352 -10 197 1.6 12.9 0.00 0.00 0.00 85 1006.5
20230127030852 -10 158 1.6 9.7 0.00 0.00 0.00 85 1006.6
20230127030353 -10 135 0.0 8.0 0.00 0.00 0.00 85 1006.8
20230127025854 -10 135 1.6 12.9 0.00 0.00 0.00 85 1006.9
20230127025352 -10 102 1.6 12.9 0.00 0.00 0.00 85 1007.0
20230127025123 -10 194 1.6 12.9 0.00 0.00 0.00 85 1007.1
20230127024353 -10 135 1.6 12.9 0.00 0.00 0.00 85 1007.1
20230127024125 -10 226 1.6 11.3 0.00 0.00 0.00 84 1007.1
20230127023348 -10 195 0.0 6.4 0.00 0.00 0.00 84 1007.2
20230127023119 -10 116 0.0 8.0 0.00 0.00 0.00 84 1007.4
20230127022350 -10 115 0.0 8.0 0.00 0.00 0.00 84 1007.4
20230127021853 -10 150 0.0 8.0 0.00 0.00 0.00 84 1008.0
20230127021848 -10 133 0.0 6.4 0.00 0.00 0.00 84 1007.7
20230127020850 -10 142 0.0 8.0 0.00 0.00 0.00 84 1008.1
20230127020619 -10 173 0.0 8.0 0.00 0.00 0.00 84 1008.2
20230127015849 -10 100 1.6 8.0 0.00 0.00 0.00 83 1008.3
20230127015350 -10 94 1.6 8.0 0.00 0.00 0.00 83 1008.4
20230127014846 -10 117 1.6 8.0 0.00 0.00 0.00 83 1008.5
20230127014345 -10 86 0.0 6.4 0.00 0.00 0.00 83 1008.6
20230127013845 -10 126 0.0 9.7 0.00 0.00 0.00 83 1008.7
20230127013346 -10 153 1.6 9.7 0.00 0.00 0.00 83 1009.1
20230127012845 -10 113 1.6 9.7 0.00 0.00 0.00 83 1009.5
20230127012345 -10 165 0.0 11.3 0.00 0.00 0.00 82 1009.7
20230127011845 -10 172 0.0 11.3 0.00 0.00 0.00 82 1009.8
20230127011618 -10 224 0.0 6.4 0.00 0.00 0.00 82 1009.9
20230127010845 -10 148 0.0 6.4 0.00 0.00 0.00 81 1010.0